This is the latest recevied weather packets stored in our database for station/object KN4CI-1. If no packets are shown the sender has not sent any weather packets the latest 10 day(s).
| Time | Temp. | Humidity | Pressure | Rain* | Wind** | Luminosity | Snow |
|---|---|---|---|---|---|---|---|
| 1777694734 | 14.44° C | 19% | 1015.6 hPa | 0 mm | 1.79 m/s, 351° | - | - |
| 1777694434 | 14.44° C | 19% | 1015.6 hPa | 0 mm | 1.79 m/s, 351° | - | - |
| 1777694131 | 14.44° C | 19% | 1015.6 hPa | 0 mm | 1.79 m/s, 0° | - | - |
| 1777693831 | 14.44° C | 19% | 1015.6 hPa | 0 mm | 1.79 m/s, 347° | - | - |
| 1777693225 | 14.44° C | 19% | 1015.6 hPa | 0 mm | 1.34 m/s, 338° | - | - |
| 1777692922 | 14.44° C | 19% | 1015.6 hPa | 0 mm | 2.68 m/s, 23° | - | - |
| 1777692316 | 14.44° C | 19% | 1015.6 hPa | 0 mm | 2.24 m/s, 58° | - | - |
| 1777691710 | 15° C | 19% | 1015.6 hPa | 0 mm | 1.34 m/s, 351° | - | - |
| 1777691407 | 15° C | 19% | 1015.6 hPa | 0 mm | 1.79 m/s, 351° | - | - |
| 1777691103 | 15° C | 19% | 1015.6 hPa | 0 mm | 2.68 m/s, 345° | - | - |
| 1777690803 | 15° C | 19% | 1015.6 hPa | 0 mm | 3.13 m/s, 316° | - | - |
| 1777690201 | 15° C | 19% | 1015.6 hPa | 0 mm | 2.68 m/s, 343° | - | - |
| 1777689900 | 15° C | 19% | 1015.6 hPa | 0 mm | 1.79 m/s, 351° | - | - |
| 1777689595 | 15° C | 19% | 1015.6 hPa | 0 mm | 1.79 m/s, 336° | - | - |
| 1777689295 | 15° C | 19% | 1015.6 hPa | 0 mm | 1.79 m/s, 345° | - | - |
| 1777688995 | 15° C | 19% | 1015.6 hPa | 0 mm | 2.24 m/s, 327° | - | - |
| 1777688691 | 15° C | 19% | 1015.6 hPa | 0 mm | 1.79 m/s, 334° | - | - |
| 1777688391 | 15° C | 19% | 1015.6 hPa | 0 mm | 1.79 m/s, 334° | - | - |
| 1777688091 | 15° C | 19% | 1015.6 hPa | 0 mm | 1.79 m/s, 326° | - | - |
| 1777687787 | 15° C | 19% | 1015.6 hPa | 0 mm | 2.24 m/s, 340° | - | - |
| 1777687482 | 15° C | 22% | 1015.6 hPa | 0 mm | 2.68 m/s, 351° | - | - |
| 1777687182 | 15° C | 24% | 1015.6 hPa | 0 mm | 2.24 m/s, 356° | - | - |
| 1777686877 | 15° C | 25% | 1015.6 hPa | 0 mm | 3.13 m/s, 342° | - | - |
| 1777686577 | 14.44° C | 29% | 1014.6 hPa | 0 mm | 1.79 m/s, 0° | - | - |
| 1777686278 | 14.44° C | 31% | 1014.6 hPa | 0 mm | 1.79 m/s, 345° | - | - |
* Rain latest hour (hover to see other rain measurements)
** Current wind speed in m/s (hover to see current wind gust speed)